Regional Weather Roundup
Issued by NWS

Home | Current Version | Previous Version | Graphics & Text | Print | Product List | Glossary On
Versions: 1 2 3 4 5 6 7 8 9 10 11 12 13 14 15 16 17 18 19 20 21 22 23 24 25 26 27 28 29 30 31 32 33 34 35 36 37 38 39 40 41 42 43 44 45 46 47 48 49 50
000
ASUS43 KOAX 281602
RWRNE

WEATHER ROUNDUP FOR NEBRASKA
NATIONAL WEATHER SERVICE OMAHA NE
1100 AM CDT TUE MAR 28 2017

NOTES: SATELLITE DATA IS BEING USED TO AUGMENT CLOUD COVER ABOVE
       12000 FEET.
       "FAIR" INDICATES FEW OR NO CLOUDS BELOW 12,000 FEET WITH NO
       SIGNIFICANT WEATHER AND/OR OBSTRUCTIONS TO VISIBILITY.

  * THESE STATIONS DO NOT REPORT WEATHER SUCH AS RAIN...SNOW OR FOG.

NEZ001>004-019>022-054>056-281700-
NEBRASKA PANHANDLE

CITY           SKY/WX    TMP DP  RH WIND       PRES   REMARKS
SCOTTSBLUFF    CLOUDY    46  43  89 E15       29.92S
ALLIANCE       LGT RAIN  44  42  93 E14       29.96R FOG
CHADRON        RAIN      45  40  82 E12       30.01R
KIMBALL        LGT RAIN  45  45 100 SE9       29.90S
SIDNEY         CLOUDY    44  43  96 SE17G23   29.91S
$$

NEZ057>060-069>072-079>082-281700-
SOUTHWEST NEBRASKA

CITY           SKY/WX    TMP DP  RH WIND       PRES   REMARKS
NORTH PLATTE   CLOUDY    44  43  96 E12       30.02R FOG
IMPERIAL       LGT RAIN  45  43  93 SE13      29.96R FOG
LEXINGTON      CLOUDY    46  43  88 E12       30.03S
MCCOOK         CLOUDY    46  45  96 E14       29.99S FOG
OGALLALA       LGT RAIN  46  44  95 E13       29.99R
$$

NEZ005>010-023>029-035>040-094-281700-
NORTH CENTRAL NEBRASKA

CITY           SKY/WX    TMP DP  RH WIND       PRES   REMARKS
VALENTINE      CLOUDY    46  43  89 E10       30.05S
AINSWORTH      CLOUDY    45  44  99 SE10      30.07S
BROKEN BOW     CLOUDY    44  42  93 SE10      30.04S FOG
O`NEILL        CLOUDY    46  44  92 CALM      30.11R
ORD            CLOUDY    47  40  76 SE12      30.06S
$$

NEZ041-046>049-061>064-073>077-083>087-281700-
SOUTH CENTRAL NEBRASKA

CITY           SKY/WX    TMP DP  RH WIND       PRES   REMARKS
GRAND ISLAND   PTSUNNY   47  42  83 E9        30.08F
AURORA         CLOUDY    45  45 100 E8        30.09S
HASTINGS       SUNNY     49  42  77 E12       30.07F
HEBRON         SUNNY     49  42  74 E10       30.08S
HOLDREGE       CLOUDY    48  44  85 SE12      30.02S
KEARNEY *      CLOUDY    48  41  76 E13       30.05S
YORK           CLOUDY    48  41  76 E10       30.10S
$$

NEZ011>018-030>034-042>045-281700-
NORTHEAST NEBRASKA

CITY           SKY/WX    TMP DP  RH WIND       PRES   REMARKS
NORFOLK        MOSUNNY   47  40  76 CALM      30.11R
ALBION         CLOUDY    43  42  94 SE3       30.11R FOG
FREMONT        CLOUDY    48  42  79 SE12      30.13R
TEKAMAH        CLOUDY    50  41  71 E10       30.12R
WAYNE          MOSUNNY   50  43  76 E6        30.12S
$$

NEZ050>053-065>068-078-088>093-281700-
SOUTHEAST NEBRASKA

CITY           SKY/WX    TMP DP  RH WIND       PRES   REMARKS
LINCOLN        CLOUDY    48  40  73 E6        30.12S
OMAHA EPPLEY   CLOUDY    47  42  83 CALM      30.12S
BEATRICE       CLOUDY    49  41  74 E9        30.10S
FALLS CITY     CLOUDY    49  43  80 NE7       30.10S
NEBRASKA CITY  CLOUDY    47  37  68 E6        30.11S
PLATTSMOUTH    CLOUDY    47  38  71 E7        30.12R
$$

NEZ044-045-051>053-067-281700-
OMAHA AREA

CITY           SKY/WX    TMP DP  RH WIND       PRES   REMARKS
OMAHA EPPLEY   CLOUDY    47  42  83 CALM      30.12S
FREMONT        CLOUDY    48  42  79 SE12      30.13R
MILLARD        CLOUDY    49  42  75 E5        30.12R
OFFUTT AFB     CLOUDY    47  40  76 E8        30.12R
PLATTSMOUTH    CLOUDY    47  38  71 E7        30.12R
WAHOO          CLOUDY    47  41  80 MISG      30.12R
$$



USA.gov is the U.S. government's official web portal to all federal, state and local government web resources and services.